1495792801.19,13982,15.69,73880.8,15.11,-22.83,-27.23,0,*47
1495792802.42,13983,15.69,73882.3,15.11,-22.03,-26.23,0,*4F
1495792803.65,13984,15.69,73882.8,15.15,-21.47,-25.49,0,*40
1495792804.89,13985,15.69,73876.3,15.15,-19.37,-22.93,0,*4D
1495792806.14,13986,15.69,73880.5,15.21,-20.35,-23.79,0,*44
1495792807.39,13987,15.69,73878.0,15.23,-20.19,-23.49,0,*4A
1495792808.64,13988,15.69,73880.5,15.25,-19.85,-22.97,0,*4E
1495792809.87,13989,15.69,73880.5,15.29,-18.83,-21.73,0,*4D
1495792811.11,13990,15.69,73876.5,15.33,-19.81,-22.63,0,*4F
1495792812.35,13991,15.69,73878.0,15.35,-19.65,-22.03,0,*44
1495792813.56,13992,15.69,73878.5,15.43,-19.13,-21.43,0,*40
1495792814.81,13993,15.69,73880.3,15.45,-18.55,-20.73,0,*46
1495792816.05,13994,15.69,73876.3,15.47,-19.17,-21.23,0,*40
1495792817.31,13995,15.69,73876.3,15.51,-20.39,-22.21,0,*41
1495792818.57,13996,15.69,73880.0,15.51,-19.31,-20.73,0,*45
1495792819.82,13997,15.69,73878.5,15.57,-20.15,-21.57,0,*49
1495792821.05,13998,15.69,73876.0,15.59,-19.47,-20.73,0,*42
1495792822.25,13999,15.69,73876.0,15.61,-20.43,-21.43,0,*44
1495792823.53,14000,15.69,73878.3,15.63,-20.15,-20.99,0,*4D
1495792824.76,14001,15.69,73878.5,15.69,-19.65,-20.43,0,*4C
1495792826.01,14002,15.69,73876.8,15.71,-20.05,-20.53,0,*4B
1495792827.21,14003,15.69,73880.8,15.73,-20.69,-21.09,0,*4C
1495792828.48,14004,15.69,73878.8,15.75,-21.83,-21.83,0,*4A
1495792829.73,14005,15.69,73880.0,15.75,-19.85,-19.51,0,*42
1495792830.93,14006,15.69,73876.8,15.83,-18.83,-18.17,0,*4C
1495792832.2,14007,15.69,73880.3,15.85,-18.59,-17.59,0,*49
1495792833.42,14008,15.69,73882.5,15.89,-19.47,-18.25,0,*40
1495792834.64,14009,15.69,73876.8,15.93,-18.83,-17.31,0,*49
1495792835.86,14010,15.69,73882.3,15.97,-18.45,-16.55,0,*4C
1495792837.12,14011,15.69,73880.8,16.01,-19.17,-17.03,0,*45
1495792838.32,14012,15.69,73878.8,16.03,-18.69,-16.03,0,*4D
1495792839.52,14013,15.69,73878.8,16.07,-18.73,-15.75,0,*41
1495792840.75,14014,15.69,73878.0,16.13,-20.05,-16.55,0,*48
1495792842.01,14015,15.69,73876.5,16.13,-20.25,-16.31,0,*49
1495792843.21,14016,15.69,73882.3,16.15,-20.05,-15.67,0,*4E
1495792844.47,14017,15.69,73880.3,16.19,-19.81,-14.83,0,*4E
1495792845.7,14018,15.69,73876.3,16.21,-19.17,-13.65,0,*4A
1495792846.94,14019,15.69,73880.5,16.27,-18.65,-12.57,0,*49
1495792848.15,14020,15.69,73880.8,16.31,-18.11,-11.45,0,*47
1495792849.42,14021,15.69,73882.0,16.37,-19.23,-12.21,0,*41
1495792850.7,14022,15.69,73882.0,16.37,-19.41,-11.85,0,*4B
1495792851.93,14023,15.69,73880.3,16.41,-18.07,-10.09,0,*4D
1495792853.16,14024,15.69,73880.0,16.45,-17.87,-9.61,0,*7F
1495792854.42,14025,15.69,73878.0,16.49,-16.17,-7.73,0,*77
1495792855.62,14026,15.69,73876.0,16.53,-15.29,-6.89,0,*75
1495792856.91,14027,15.69,73880.8,16.59,-13.29,-5.03,0,*79
1495792858.14,14028,15.69,73880.3,16.65,-14.51,-6.51,0,*75
1495792859.37,14029,15.69,73880.5,16.65,-13.43,-5.65,0,*74
1495792860.61,14030,15.69,73878.0,16.71,-12.61,-5.35,0,*7D
1495792861.84,14031,15.69,73878.8,16.71,-12.25,-5.43,0,*7D
1495792863.09,14032,15.69,73876.5,16.75,-13.69,-7.31,0,*74
1495792864.32,14033,15.69,73878.5,16.75,-14.11,-8.41,0,*75
1495792865.58,14034,15.69,73878.8,16.75,-12.25,-7.01,0,*78
1495792866.86,14035,15.69,73876.3,16.81,-10.79,-5.89,0,*7B
1495792868.09,14036,15.69,73878.8,16.81,-8.89,-4.53,0,*48
1495792869.33,14037,15.69,73876.3,16.85,-9.75,-5.73,0,*4C
1495792870.58,14038,15.69,73878.5,16.87,-8.51,-4.89,0,*42
1495792871.82,14039,15.69,73878.8,16.93,-9.19,-5.65,0,*48
1495792873.09,14040,15.69,73878.5,16.93,-9.61,-6.19,0,*41
1495792874.35,14041,15.69,73882.3,16.95,-9.15,-5.89,0,*4F
1495792875.6,14042,15.69,73876.3,16.97,-7.57,-4.53,0,*40
1495792876.82,14043,15.69,73876.0,17.05,-6.81,-3.91,0,*48
1495792878.04,14044,15.69,73878.8,17.07,-6.93,-4.05,0,*44
1495792879.26,14045,15.69,73876.8,17.11,-7.23,-4.25,0,*4A
1495792880.51,14046,15.69,73880.0,17.15,-7.99,-4.99,0,*4B
1495792881.78,14047,15.69,73876.0,17.19,-8.11,-4.73,0,*4D
1495792883.0,14048,15.69,73876.5,17.23,-8.29,-4.61,0,*43
1495792884.21,14049,15.69,73878.0,17.23,-10.09,-6.13,0,*7E
1495792885.43,14050,15.69,73876.8,17.27,-10.45,-6.01,0,*79
1495792886.69,14051,15.75,73880.3,17.29,-11.07,-6.19,0,*78
1495792887.94,14052,15.69,73878.0,17.27,-10.57,-5.31,0,*78
1495792889.14,14053,15.69,73876.0,17.29,-10.01,-4.29,0,*7C
1495792890.36,14054,15.69,73878.5,17.35,-10.31,-4.41,0,*7B
1495792891.56,14055,15.69,73876.5,17.33,-11.01,-4.45,0,*7A
1495792892.81,14056,15.69,73878.3,17.35,-10.41,-3.19,0,*74
1495792894.0,14057,15.69,73878.3,17.37,-9.89,-2.35,0,*44
1495792895.22,14058,15.69,73876.3,17.41,-9.27,-1.47,0,*48
1495792896.41,14059,15.69,73876.5,17.45,-8.37,0.05,0,*67
1495792897.61,14060,15.69,73876.3,17.53,-8.33,0.29,0,*50
1495792898.88,14061,15.69,73876.3,17.55,-7.05,2.01,0,*65
1495792900.14,14062,15.69,73874.3,17.63,-5.89,3.19,0,*6D
1495792901.39,14063,15.69,73878.0,17.67,-4.93,4.31,0,*6F
1495792902.65,14064,15.69,73874.3,17.77,-4.01,5.19,0,*69
1495792903.87,14065,15.69,73874.8,17.81,-3.75,5.41,0,*68
1495792905.12,14066,15.75,73878.8,17.87,-3.63,5.55,0,*6F
1495792906.33,14067,15.69,73874.0,17.95,-2.79,6.17,0,*62
1495792907.53,14068,15.69,73878.3,17.99,-2.15,6.61,0,*6A
1495792908.74,14069,15.75,73878.0,18.03,-2.23,6.17,0,*63
1495792909.95,14070,15.69,73876.8,18.11,-2.43,5.63,0,*6E
1495792911.21,14071,15.69,73874.3,18.11,-1.05,6.69,0,*67
1495792912.45,14072,15.69,73874.0,18.21,-0.97,6.47,0,*51
1495792913.66,14073,15.69,73876.3,18.21,-3.47,3.85,0,*65
1495792914.92,14074,15.69,73876.0,18.23,-4.89,2.21,0,*6A
1495792916.13,14075,15.69,73876.8,18.17,-6.05,0.67,0,*5A
1495792917.35,14076,15.69,73876.5,18.13,-4.13,2.13,0,*69
1495792918.56,14077,15.69,73872.5,18.11,-4.33,1.75,0,*6B
1495792919.78,14078,15.69,73874.8,18.09,-4.17,1.33,0,*69
1495792921.01,14079,15.69,73876.3,18.05,-4.69,0.37,0,*58
1495792922.25,14080,15.75,73878.5,18.01,-3.79,0.95,0,*54
1495792923.51,14081,15.69,73876.8,17.97,-3.51,0.79,0,*5D
1495792924.69,14082,15.69,73872.8,17.91,-4.65,-0.61,0,*7C
1495792925.9,14083,15.69,73872.8,17.87,-3.67,0.09,0,*6C
1495792927.1,14084,15.69,73872.3,17.83,-2.91,0.51,0,*5A
1495792928.3,14085,15.75,73876.5,17.79,-2.39,0.67,0,*59
1495792929.54,14086,15.69,73872.3,17.75,-2.03,0.75,0,*5C
1495792930.78,14087,15.69,73874.0,17.73,-1.75,0.87,0,*54
1495792931.98,14088,15.69,73872.3,17.69,-1.59,0.75,0,*53
1495792933.21,14089,15.69,73874.0,17.65,-1.43,0.63,0,*52
1495792934.39,14090,15.69,73872.8,17.61,-0.61,0.97,0,*64
1495792935.57,14091,15.69,73874.5,17.57,-1.29,0.09,0,*6A
1495792936.83,14092,15.69,73872.8,17.55,-1.09,0.17,0,*56
1495792938.04,14093,15.75,73876.0,17.53,-0.49,0.55,0,*62
1495792939.24,14094,15.69,73872.3,17.49,-1.17,-0.37,0,*7D
1495792940.45,14095,15.69,73874.5,17.43,-1.25,-0.69,0,*7C
1495792941.67,14096,15.69,73874.3,17.43,-0.81,-0.33,0,*4F
1495792942.91,14097,15.75,73876.5,17.35,-1.43,-1.33,0,*41
1495792944.15,14098,15.75,73878.0,17.33,-2.71,-2.67,0,*48
1495792945.37,14099,15.69,73872.8,17.27,-3.15,-3.39,0,*45
1495792946.57,14100,15.69,73876.3,17.21,-2.95,-3.07,0,*46
1495792947.79,14101,15.69,73876.8,17.13,-3.39,-3.51,0,*42
1495792949.04,14102,15.69,73876.8,17.09,-2.51,-2.63,0,*45
1495792950.27,14103,15.75,73878.0,17.05,-3.95,-4.13,0,*40
1495792951.5,14104,15.69,73878.5,16.97,-3.91,-4.13,0,*49
1495792952.72,14105,15.69,73874.8,16.91,-3.35,-3.59,0,*49
1495792953.94,14106,15.69,73876.8,16.87,-3.39,-3.67,0,*4C
1495792955.14,14107,15.69,73878.8,16.83,-4.29,-4.61,0,*4E
1495792956.33,14108,15.69,73878.5,16.73,-4.17,-4.49,0,*49
1495792957.59,14109,15.69,73874.8,16.67,-4.57,-5.03,0,*46
1495792958.8,14110,15.69,73872.5,16.61,-2.67,-3.07,0,*4F
1495792960.05,14111,15.69,73872.0,16.55,-1.67,-2.03,0,*4F
1495792961.27,14112,15.69,73878.0,16.53,-2.15,-2.55,0,*4F
1495792962.52,14113,15.69,73878.0,16.51,-3.71,-4.21,0,*4A
1495792963.72,14114,15.69,73876.0,16.45,-2.91,-3.27,0,*46
1495792964.96,14115,15.75,73878.5,16.41,-3.19,-3.55,0,*47
1495792966.18,14116,15.69,73876.5,16.39,-3.23,-3.59,0,*4E
1495792967.43,14117,15.69,73876.0,16.29,-2.31,-2.63,0,*44
1495792968.63,14118,15.75,73876.3,16.27,-2.35,-2.83,0,*4F
1495792969.88,14119,15.69,73876.0,16.21,-4.49,-5.15,0,*4D
1495792971.07,14120,15.69,73878.8,16.15,-5.43,-6.09,0,*45
1495792972.29,14121,15.69,73876.0,16.07,-5.93,-6.59,0,*4F
1495792973.5,14122,15.69,73876.5,15.99,-3.23,-3.59,0,*40
1495792974.69,14123,15.69,73878.3,15.95,-3.39,-3.75,0,*48
1495792975.9,14124,15.75,73878.0,15.93,-2.99,-3.39,0,*4A
1495792977.11,14125,15.75,73878.5,15.89,-4.13,-4.57,0,*4B
1495792978.33,14126,15.69,73876.5,15.83,-3.15,-3.63,0,*43
1495792979.53,14127,15.69,73878.3,15.79,-4.45,-4.99,0,*47
1495792980.75,14128,15.75,73878.8,15.75,-3.83,-4.41,0,*4C
1495792982.02,14129,15.69,73878.8,15.71,-5.03,-5.81,0,*4A
1495792983.29,14130,15.75,73880.0,15.63,-4.77,-5.61,0,*4D
1495792984.51,14131,15.69,73878.0,15.57,-4.41,-5.31,0,*4B
1495792985.73,14132,15.69,73876.3,15.53,-4.17,-4.77,0,*4C
1495792986.98,14133,15.69,73876.8,15.51,-4.41,-5.23,0,*4C
1495792988.19,14134,15.75,73882.8,15.45,-4.49,-5.39,0,*4D
1495792989.43,14135,15.75,73880.5,15.37,-5.93,-6.85,0,*4B
1495792990.68,14136,15.75,73884.8,15.33,-4.41,-5.31,0,*4E
1495792991.87,14137,15.69,73880.0,15.31,-3.39,-4.37,0,*42
1495792993.09,14138,15.69,73880.3,15.29,-3.07,-4.41,0,*48
1495792994.34,14139,15.69,73882.5,15.27,-3.43,-5.15,0,*47
1495792995.53,14140,15.69,73880.3,15.23,-4.53,-6.89,0,*4D
1495792996.78,14141,15.75,73880.3,15.21,-3.63,-5.97,0,*46
1495792998.05,14142,15.75,73882.5,15.15,-3.55,-5.93,0,*43
1495792999.29,14143,15.75,73884.3,15.13,-5.15,-7.77,0,*4E
1495793000.53,14144,15.69,73882.0,15.13,-5.27,-8.03,0,*44
1495793001.76,14145,15.69,73876.5,15.07,-6.85,-10.01,0,*70
1495793003.0,14146,15.75,73882.5,15.03,-5.93,-8.71,0,*4D
1495793004.2,14147,15.69,73880.3,15.01,-5.55,-8.25,0,*45
1495793005.4,14148,15.69,73882.8,15.01,-6.01,-8.37,0,*4B
1495793006.61,14149,15.75,73882.3,15.01,-10.19,-12.47,0,*48
1495793007.89,14150,15.75,73880.0,14.91,-11.33,-12.75,0,*40
1495793009.11,14151,15.69,73880.3,14.85,-9.53,-10.23,0,*7A
1495793010.34,14152,15.75,73880.5,14.83,-9.71,-9.79,0,*48
1495793011.58,14153,15.69,73878.8,14.79,-8.59,-7.77,0,*47
1495793012.8,14154,15.75,73878.5,14.79,-8.37,-7.15,0,*4C
1495793014.07,14155,15.69,73876.0,14.75,-7.65,-5.93,0,*45
1495793015.29,14156,15.75,73882.3,14.75,-8.17,-6.31,0,*47
1495793016.53,14157,15.69,73878.8,14.71,-8.21,-5.73,0,*42
1495793017.78,14158,15.69,73878.5,14.71,-7.65,-4.57,0,*45
1495793019.02,14159,15.69,73878.0,14.67,-7.35,-4.17,0,*42
1495793020.21,14160,15.75,73880.5,14.65,-6.31,-3.27,0,*4B
1495793021.4,14161,15.69,73876.5,14.65,-4.29,-1.75,0,*44
1495793022.62,14162,15.75,73882.3,14.65,-3.31,-1.35,0,*4D
1495793023.85,14163,15.75,73880.0,14.65,-3.75,-1.99,0,*4A
1495793025.04,14164,15.75,73880.5,14.65,-2.87,-1.25,0,*46
1495793026.26,14165,15.75,73876.0,14.65,-4.09,-2.67,0,*42
1495793027.5,14166,15.69,73876.5,14.63,-3.67,-2.43,0,*4E
1495793028.69,14167,15.75,73874.8,14.61,-4.37,-3.15,0,*4D
1495793029.91,14168,15.69,73872.0,14.57,-5.23,-3.95,0,*4B
1495793031.1,14169,15.69,73872.5,14.53,-4.61,-3.31,0,*47
1495793032.34,14170,15.75,73878.3,14.49,-3.23,-1.83,0,*4E
1495793033.56,14171,15.69,73874.3,14.47,-4.69,-3.43,0,*46
1495793034.75,14172,15.75,73874.3,14.43,-4.25,-2.91,0,*47
1495793035.98,14173,15.69,73870.3,14.43,-6.43,-5.27,0,*4E
1495793037.18,14174,15.69,73874.3,14.35,-6.55,-5.51,0,*4E
1495793038.37,14175,15.75,73874.3,14.27,-4.21,-3.23,0,*4E
1495793039.57,14176,15.75,73872.0,14.23,-4.21,-3.39,0,*42
1495793040.78,14177,15.75,73874.0,14.23,-4.69,-3.91,0,*4D
1495793042.02,14178,15.75,73872.5,14.19,-2.87,-2.11,0,*44
1495793043.24,14179,15.75,73872.0,14.17,-2.87,-2.11,0,*4B
1495793044.45,14180,15.69,73868.5,14.15,-5.51,-4.99,0,*45
1495793045.67,14181,15.69,73864.0,14.09,-4.21,-3.47,0,*4B
1495793046.88,14182,15.75,73868.0,14.05,-4.81,-4.29,0,*41
1495793048.13,14183,15.69,73868.5,13.99,-6.59,-6.27,0,*49
1495793049.33,14184,15.75,73872.0,13.93,-7.15,-6.77,0,*48
1495793050.54,14185,15.75,73872.5,13.87,-7.31,-6.77,0,*4A
1495793051.79,14186,15.75,73872.3,13.81,-6.43,-6.19,0,*43
1495793053.04,14187,15.75,73872.8,13.77,-5.81,-5.51,0,*49
1495793054.29,14188,15.75,73874.8,13.69,-7.43,-7.19,0,*4B
1495793055.56,14189,15.75,73872.3,13.65,-7.43,-7.27,0,*4B
1495793056.78,14190,15.75,73872.0,13.59,-7.05,-6.85,0,*47
1495793058.02,14191,15.69,73872.5,13.51,-6.77,-6.63,0,*42
1495793059.27,14192,15.75,73872.5,13.47,-6.05,-6.19,0,*4E
1495793060.54,14193,15.75,73878.0,13.43,-5.27,-5.27,0,*46
1495793061.76,14194,15.75,73876.8,13.37,-5.27,-5.51,0,*43
1495793062.97,14195,15.69,73872.5,13.33,-5.97,-6.27,0,*4F
1495793064.25,14196,15.69,73874.8,13.31,-5.69,-5.85,0,*44
1495793065.49,14197,15.75,73872.8,13.25,-4.93,-5.31,0,*4B
1495793066.68,14198,15.75,73876.5,13.23,-5.51,-6.09,0,*45
1495793067.92,14199,15.69,73872.5,13.21,-4.85,-5.55,0,*44
1495793069.16,14200,15.69,73872.0,13.17,-4.73,-5.47,0,*48
1495793070.41,14201,15.75,73872.5,13.17,-4.57,-5.27,0,*49
1495793071.63,14202,15.75,73872.3,13.11,-5.69,-6.43,0,*41
1495793072.88,14203,15.69,73874.0,13.07,-5.93,-6.93,0,*4F
1495793074.1,14204,15.75,73874.8,13.03,-6.63,-7.49,0,*46
1495793075.32,14205,15.69,73874.8,12.99,-6.77,-7.39,0,*47
1495793076.55,14206,15.75,73876.3,12.97,-6.39,-6.81,0,*42
1495793077.81,14207,15.75,73874.3,12.91,-7.27,-7.69,0,*4C
1495793079.0,14208,15.75,73878.0,12.85,-7.87,-8.29,0,*47
1495793080.22,14209,15.69,73874.5,12.83,-8.59,-8.85,0,*4A
1495793081.44,14210,15.75,73874.8,12.77,-7.73,-7.83,0,*47
1495793082.69,14211,15.75,73876.5,12.75,-7.91,-7.87,0,*4C
1495793083.96,14212,15.69,73874.5,12.67,-7.99,-7.69,0,*44
1495793085.2,14213,15.75,73876.8,12.63,-8.41,-8.03,0,*48
1495793086.44,14214,15.69,73872.0,12.63,-9.49,-8.85,0,*48
1495793087.69,14215,15.75,73876.5,12.57,-9.11,-8.25,0,*49
1495793088.93,14216,15.75,73874.8,12.53,-8.97,-8.11,0,*46
1495793090.17,14217,15.75,73878.3,12.49,-8.71,-7.83,0,*40
1495793091.42,14218,15.69,73872.0,12.45,-8.89,-7.99,0,*4F
1495793092.67,14219,15.75,73876.5,12.37,-8.89,-7.69,0,*44
1495793093.89,14220,15.69,73874.8,12.37,-7.83,-6.47,0,*46
1495793095.08,14221,15.69,73876.0,12.35,-7.87,-6.59,0,*4E
1495793096.3,14222,15.75,73878.3,12.31,-6.93,-5.39,0,*48
1495793097.55,14223,15.75,73878.5,12.29,-6.19,-4.53,0,*4F
1495793098.8,14224,15.69,73878.8,12.29,-5.65,-4.25,0,*41
1495793100.02,14225,15.75,73876.0,12.29,-5.51,-4.09,0,*49
1495793101.26,14226,15.69,73878.3,12.29,-4.99,-3.59,0,*4D
1495793102.54,14227,15.69,73876.8,12.29,-4.01,-2.55,0,*40
1495793103.76,14228,15.69,73874.5,12.31,-3.95,-2.67,0,*4D
1495793104.96,14229,15.75,73882.0,12.31,-4.25,-3.07,0,*47
1495793106.17,14230,15.75,73878.8,12.29,-4.49,-3.35,0,*4D
1495793107.39,14231,15.69,73874.8,12.29,-4.09,-3.11,0,*4E
1495793108.63,14232,15.69,73876.3,12.29,-3.51,-2.43,0,*41
1495793109.89,14233,15.69,73878.0,12.29,-3.83,-2.55,0,*48
1495793111.11,14234,15.75,73878.0,12.29,-2.95,-1.79,0,*44
1495793112.37,14235,15.75,73878.5,12.29,-3.31,-2.07,0,*40
1495793113.62,14236,15.75,73880.8,12.29,-4.01,-2.83,0,*4B
1495793114.87,14237,15.75,73880.3,12.29,-3.87,-2.71,0,*4E
1495793116.08,14238,15.75,73878.8,12.27,-3.23,-1.95,0,*48
1495793117.27,14239,15.75,73880.3,12.27,-2.87,-1.55,0,*4A
1495793118.54,14240,15.69,73876.5,12.29,-2.71,-1.43,0,*44
1495793119.78,14241,15.75,73882.0,12.29,-2.59,-1.25,0,*4F
1495793121.0,14242,15.75,73880.5,12.29,-3.35,-2.19,0,*4B
1495793122.25,14243,15.75,73882.5,12.29,-3.87,-2.71,0,*4D
1495793123.48,14244,15.75,73882.0,12.27,-3.47,-2.31,0,*4C
1495793124.71,14245,15.75,73880.8,12.27,-3.31,-2.11,0,*4E
1495793125.89,14246,15.75,73882.5,12.23,-4.13,-3.23,0,*4E
1495793127.08,14247,15.69,73878.3,12.23,-3.23,-2.15,0,*4F
1495793128.3,14248,15.69,73878.8,12.21,-3.19,-2.27,0,*4A
1495793129.54,14249,15.75,73880.8,12.21,-2.71,-1.75,0,*40
1495793130.76,14250,15.75,73882.0,12.19,-2.91,-2.03,0,*4F
1495793132.0,14251,15.75,73882.0,12.21,-2.51,-1.63,0,*4C
1495793133.22,14252,15.75,73880.8,12.21,-2.43,-1.79,0,*47
1495793134.44,14253,15.75,73880.0,12.17,-2.95,-2.43,0,*42
1495793135.71,14254,15.75,73882.8,12.17,-2.55,-1.83,0,*46
1495793136.93,14255,15.75,73880.3,12.15,-2.03,-1.51,0,*49
1495793138.15,14256,15.75,73882.8,12.15,-2.39,-1.83,0,*4C
1495793139.34,14257,15.69,73878.3,12.15,-2.15,-1.71,0,*4E
1495793140.55,14258,15.69,73880.3,12.15,-2.39,-1.95,0,*45
1495793141.79,14259,15.69,73878.8,12.13,-1.79,-1.43,0,*4E
1495793143.01,14260,15.69,73878.5,12.11,-1.91,-1.55,0,*47
1495793144.2,14261,15.75,73880.5,12.11,-1.51,-1.21,0,*49
1495793145.45,14262,15.69,73876.8,12.11,-1.39,-1.13,0,*45
1495793146.64,14263,15.75,73882.8,12.11,-1.79,-1.51,0,*46
1495793147.86,14264,15.75,73882.0,12.13,-1.55,-1.29,0,*42
1495793149.07,14265,15.69,73878.3,12.11,-0.53,-0.27,0,*49
1495793150.27,14266,15.75,73882.5,12.11,-0.93,-0.81,0,*4A
1495793151.49,14267,15.75,73880.5,12.11,-0.89,-0.69,0,*46
1495793152.72,14268,15.75,73880.3,12.11,-1.01,-0.93,0,*7D
1495793153.94,14269,15.69,73880.3,12.11,-1.39,-1.33,0,*4C
1495793155.16,14270,15.75,73882.5,12.11,-1.29,-1.13,0,*47
1495793156.41,14271,15.75,73882.5,12.11,-1.13,-1.01,0,*4C
1495793157.6,14272,15.69,73878.8,12.11,-1.33,-1.33,0,*4C
1495793158.84,14273,15.75,73886.8,12.07,-1.91,-1.95,0,*4E
1495793160.03,14274,15.75,73882.5,12.07,-2.83,-2.99,0,*46
1495793161.25,14275,15.75,73882.5,12.01,-2.79,-2.87,0,*4B
1495793162.49,14276,15.69,73878.5,11.99,-1.87,-1.91,0,*4C
1495793163.71,14277,15.69,73880.3,11.99,-1.13,-1.17,0,*4E
1495793164.97,14278,15.75,73882.3,11.97,-0.85,-0.89,0,*47
1495793166.22,14279,15.69,73878.3,11.97,-1.05,-1.21,0,*4C
1495793167.4,14280,15.69,73876.5,11.99,-0.37,-0.57,0,*44
1495793168.65,14281,15.69,73880.8,11.97,-1.05,-1.17,0,*4E
1495793169.91,14282,15.75,73882.3,11.97,-0.85,-0.97,0,*4D
1495793171.16,14283,15.75,73880.8,11.97,-0.85,-0.97,0,*4C
1495793172.36,14284,15.75,73882.3,11.97,-0.29,-0.61,0,*44
1495793173.57,14285,15.75,73882.0,11.97,-0.45,-0.81,0,*41
1495793174.81,14286,15.69,73882.3,11.97,-0.73,-1.09,0,*76
1495793176.03,14287,15.75,73880.0,11.97,-0.11,-0.41,0,*4E
1495793177.22,14288,15.75,73880.5,11.99,-0.03,-0.41,0,*7C
1495793178.43,14289,15.75,73880.3,11.97,-0.19,-0.57,0,*4F
1495793179.61,14290,15.75,73880.5,11.99,-0.15,-0.53,0,*41
1495793180.84,14291,15.75,73882.0,11.97,-0.57,-0.97,0,*40
1495793182.03,14292,15.75,73882.8,11.99,-0.37,-0.81,0,*4C
1495793183.24,14293,15.69,73880.5,11.99,-0.53,-1.01,0,*76
1495793184.49,14294,15.75,73882.5,11.97,-1.29,-1.83,0,*49
1495793185.74,14295,15.75,73882.8,11.97,-0.81,-1.43,0,*77
1495793186.96,14296,15.75,73880.3,11.97,-1.17,-1.79,0,*43
1495793188.23,14297,15.75,73880.5,11.97,-0.85,-1.47,0,*75
1495793189.5,14298,15.75,73882.0,11.97,-1.83,-2.55,0,*4D
1495793190.72,14299,15.75,73882.5,11.95,-1.63,-2.35,0,*46
1495793191.94,14300,15.75,73882.8,11.93,-1.75,-2.51,0,*44
1495793193.15,14301,15.75,73880.5,11.93,-1.75,-2.59,0,*4D
1495793194.39,14302,15.75,73880.0,11.95,-1.47,-2.19,0,*4D
1495793195.62,14303,15.75,73880.8,11.93,-1.71,-2.51,0,*43
1495793196.86,14304,15.75,73882.5,11.93,-1.35,-2.07,0,*47
1495793198.09,14305,15.75,73882.5,11.95,-1.21,-1.75,0,*43
1495793199.33,14306,15.69,73878.8,11.95,-1.25,-1.87,0,*49
1495793200.52,14307,15.75,73880.8,11.93,-1.51,-2.19,0,*49
1495793201.8,14308,15.75,73882.0,11.95,-1.39,-1.99,0,*45
1495793203.07,14309,15.75,73880.3,11.95,-0.97,-1.47,0,*72
1495793204.29,14310,15.75,73880.8,11.97,-0.73,-1.21,0,*72
1495793205.53,14311,15.75,73882.8,11.97,-0.69,-1.09,0,*72
1495793206.74,14312,15.69,73878.8,11.99,-0.69,-1.05,0,*73
1495793207.95,14313,15.75,73880.0,12.01,0.09,-0.15,0,*5B
1495793209.19,14314,15.75,73882.5,12.05,0.59,0.51,0,*40
1495793210.38,14315,15.69,73882.3,12.11,0.43,0.33,0,*4B
1495793211.59,14316,15.75,73882.0,12.13,-0.65,-0.81,0,*47
1495793212.83,14317,15.75,73882.8,12.17,-1.25,-1.43,0,*48
1495793214.06,14318,15.75,73882.3,12.15,-2.11,-2.27,0,*40
1495793215.33,14319,15.69,73882.3,12.17,-2.11,-2.07,0,*41
1495793216.54,14320,15.75,73880.5,12.17,-0.73,-0.69,0,*47
1495793217.76,14321,15.75,73880.8,12.19,0.21,0.41,0,*45
1495793218.99,14322,15.69,73882.0,12.27,0.51,0.63,0,*4C
1495793220.17,14323,15.75,73880.5,12.31,-0.29,-0.19,0,*48
1495793221.35,14324,15.75,73882.8,12.31,-0.45,-0.33,0,*4D
1495793222.59,14325,15.75,73880.8,12.37,-0.85,-0.81,0,*4F
1495793223.77,14326,15.75,73882.8,12.39,-0.33,-0.45,0,*47
1495793224.97,14327,15.75,73880.5,12.39,-1.21,-1.33,0,*44
1495793226.19,14328,15.75,73882.8,12.43,-1.99,-2.15,0,*42
1495793227.41,14329,15.75,73880.8,12.43,-1.67,-1.99,0,*45
1495793228.62,14330,15.75,73882.3,12.49,-0.37,-0.61,0,*45
1495793229.8,14331,15.75,73880.8,12.51,0.09,-0.33,0,*5A
1495793230.98,14332,15.75,73882.3,12.55,0.09,-0.41,0,*58
1495793232.16,14333,15.75,73886.3,12.55,-0.69,-1.17,0,*70
1495793233.35,14334,15.75,73882.3,12.61,-0.61,-1.33,0,*7E
1495793234.57,14335,15.69,73878.5,12.65,-1.21,-1.95,0,*42
1495793235.77,14336,15.75,73880.5,12.65,-2.31,-3.15,0,*49
1495793237.01,14337,15.75,73880.5,12.69,-1.35,-2.07,0,*41
1495793238.26,14338,15.75,73882.0,12.75,-1.99,-2.79,0,*4C
1495793239.52,14339,15.75,73884.8,12.75,-2.67,-3.43,0,*47
1495793240.76,14340,15.75,73880.8,12.79,-2.71,-3.27,0,*40
1495793242.01,14341,15.75,73884.8,12.79,-3.59,-4.29,0,*43
1495793243.2,14342,15.75,73884.0,12.81,-4.65,-5.35,0,*43
1495793244.45,14343,15.75,73884.3,12.81,-5.03,-5.61,0,*42
1495793245.66,14344,15.75,73882.5,12.81,-4.81,-5.47,0,*4A
1495793246.88,14345,15.75,73880.8,12.83,-4.99,-5.55,0,*43
1495793248.1,14346,15.75,73882.8,12.83,-6.43,-6.85,0,*4B
1495793249.37,14347,15.75,73882.8,12.83,-6.97,-7.27,0,*4A
1495793250.58,14348,15.75,73882.5,12.85,-6.81,-7.05,0,*44
1495793251.82,14349,15.75,73880.0,12.85,-7.31,-7.57,0,*48
1495793253.03,14350,15.75,73882.5,12.85,-7.31,-7.49,0,*4F
1495793254.22,14351,15.75,73882.0,12.85,-7.19,-7.19,0,*41
1495793255.44,14352,15.75,73880.8,12.85,-7.49,-7.31,0,*4D
1495793256.68,14353,15.75,73880.8,12.87,-6.39,-5.81,0,*41
1495793257.91,14354,15.75,73882.0,12.87,-5.11,-4.33,0,*47
1495793259.13,14355,15.75,73880.3,12.95,-4.93,-4.21,0,*4D
1495793260.36,14356,15.75,73880.3,12.99,-5.07,-4.13,0,*4F
1495793261.63,14357,15.75,73882.8,13.01,-7.27,-5.89,0,*4C
1495793262.88,14358,15.75,73882.0,13.03,-8.07,-6.23,0,*4F
1495793264.13,14359,15.75,73882.0,13.05,-9.67,-7.43,0,*48
1495793265.36,14360,15.69,73880.0,13.03,-13.73,-10.79,0,*45
1495793266.61,14361,15.75,73880.5,12.99,-13.83,-10.15,0,*43
1495793267.83,14362,15.75,73882.5,12.95,-14.37,-10.15,0,*44
1495793269.02,14363,15.75,73878.5,12.95,-13.65,-8.97,0,*76
1495793270.24,14364,15.75,73880.3,12.91,-13.73,-8.29,0,*77
1495793271.49,14365,15.75,73882.5,12.91,-13.87,-7.83,0,*72
1495793272.72,14366,15.75,73878.5,12.89,-14.33,-7.73,0,*7F
1495793273.94,14367,15.75,73876.5,12.85,-12.65,-5.97,0,*7F
1495793275.19,14368,15.75,73878.5,12.85,-12.35,-5.11,0,*7B
1495793276.41,14369,15.75,73882.3,12.85,-11.33,-3.95,0,*75
1495793277.63,14370,15.69,73876.5,12.85,-11.85,-4.33,0,*7B
1495793278.82,14371,15.75,73880.0,12.85,-9.75,-2.15,0,*4E
1495793280.05,14372,15.69,73876.0,12.87,-8.07,-0.61,0,*7A
1495793281.28,14373,15.75,73876.8,12.91,-6.77,0.67,0,*5E
1495793282.54,14374,15.75,73876.3,12.97,-4.93,2.47,0,*67
1495793283.77,14375,15.75,73882.0,13.05,-3.31,3.93,0,*6B
1495793285.01,14376,15.75,73878.8,13.13,-2.11,4.89,0,*60
1495793286.2,14377,15.75,73882.5,13.23,-1.67,5.23,0,*61
1495793287.39,14378,15.75,73876.5,13.29,-2.39,4.41,0,*69
1495793288.64,14379,15.75,73880.8,13.35,-3.55,3.19,0,*64
1495793289.85,14380,15.75,73876.8,13.41,-4.45,2.17,0,*68
1495793291.04,14381,15.75,73878.0,13.41,-5.39,1.05,0,*63
1495793292.24,14382,15.75,73880.8,13.41,-4.69,1.41,0,*64
1495793293.46,14383,15.75,73880.3,13.43,-4.41,1.47,0,*6B
1495793294.67,14384,15.75,73878.5,13.45,-4.25,1.43,0,*6C
1495793295.87,14385,15.75,73880.0,13.45,-4.13,1.43,0,*68
1495793297.08,14386,15.75,73876.0,13.45,-3.87,1.43,0,*61
1495793298.32,14387,15.75,73878.3,13.47,-4.25,0.87,0,*54
1495793299.56,14388,15.75,73878.3,13.49,-4.01,0.79,0,*52
1495793300.82,14389,15.75,73876.8,13.47,-4.01,0.51,0,*57
1495793302.04,14390,15.69,73872.8,13.47,-4.41,-0.11,0,*72
1495793303.28,14391,15.75,73876.8,13.47,-5.81,-1.79,0,*41
1495793304.53,14392,15.75,73882.0,13.45,-5.27,-1.47,0,*41
1495793305.78,14393,15.75,73874.3,13.43,-4.93,-1.39,0,*41
1495793307.02,14394,15.75,73878.8,13.37,-5.27,-1.95,0,*4D